Location: Devore Heights
(34.2372°N, 117.4156°W)
Time: 02:11:55
(UTC+00:00)

SR - Pass Details

Date: 17 September 2024
Orbit: 578 x 855 km, 66.7° (Epoch: 02 October)

Event Time Altitude Azimuth Distance (km) Brightness Sun altitude
Rises 07:06:53 0° 310° (NW) 3,042 - -52.7°
Reaches altitude 10° 07:10:03 10° 288° (WNW) 2,181 - -52.9°
Maximum altitude 07:12:52 15° 253° (WSW) 1,895 - -53.0°
Drops below altitude 10° 07:15:47 10° 219° (SW) 2,279 - -53.1°
Sets 07:19:14 0° 197° (SSW) 3,260 - -53.3°
